N123PC KISM-KFIN

Flight info

Callsign N123PC
Flight time N/A
Altitude 4500
Route /
Aircraft S22T/L-SDGRY/S

Departure

Time 2026-05-01 14:32
Airport Kissimmee Gateway Airport (KISM)

Arrival

Time N/A
Airport Flagler Executive Airport (KFIN)
Time Latitude Longitude Altitude Speed Heading
2026-05-01 13:35 28.29427 -81.43434 88 ft 0 kts 90°
2026-05-01 14:27 28.29427 -81.43429 90 ft 3 kts 92°
2026-05-01 14:28 28.29413 -81.43323 88 ft 12 kts 59°
2026-05-01 14:28 28.29458 -81.43242 92 ft 11 kts 58°
2026-05-01 14:28 28.29492 -81.43175 92 ft 9 kts 80°
2026-05-01 14:28 28.29489 -81.43154 91 ft 0 kts 118°
2026-05-01 14:29 28.29489 -81.43153 91 ft 1 kts 118°
2026-05-01 14:30 28.29471 -81.43137 91 ft 0 kts 153°
2026-05-01 14:30 28.29469 -81.43135 91 ft 2 kts 153°
2026-05-01 14:30 28.29425 -81.43109 92 ft 10 kts 152°
2026-05-01 14:31 28.29394 -81.43117 92 ft 0 kts 240°
2026-05-01 14:31 28.29389 -81.43127 92 ft 10 kts 240°
2026-05-01 14:31 28.29245 -81.43391 90 ft 67 kts 238°
2026-05-01 14:32 28.28941 -81.43933 170 ft 88 kts 238°
2026-05-01 14:32 28.28592 -81.44535 413 ft 93 kts 238°
2026-05-01 14:32 28.28248 -81.45170 702 ft 96 kts 246°
2026-05-01 14:32 28.28133 -81.45926 922 ft 101 kts 277°
2026-05-01 14:33 28.28465 -81.46632 1121 ft 109 kts 311°
2026-05-01 14:33 28.29079 -81.47174 1393 ft 109 kts 325°
2026-05-01 14:33 28.29738 -81.47611 1645 ft 112 kts 326°
2026-05-01 14:33 28.30450 -81.47984 1863 ft 117 kts 336°
2026-05-01 14:34 28.31254 -81.48228 2137 ft 120 kts 347°
2026-05-01 14:34 28.32066 -81.48399 2380 ft 121 kts 349°
2026-05-01 14:34 28.32866 -81.48522 2557 ft 112 kts 350°
2026-05-01 14:34 28.33623 -81.48618 2691 ft 109 kts 354°
2026-05-01 14:35 28.34373 -81.48665 2803 ft 107 kts 353°
2026-05-01 14:35 28.35115 -81.48698 2904 ft 107 kts 359°
2026-05-01 14:35 28.35860 -81.48694 3007 ft 107 kts 359°
2026-05-01 14:35 28.36602 -81.48602 3116 ft 107 kts
2026-05-01 14:36 28.37347 -81.48504 3216 ft 108 kts
2026-05-01 14:36 28.38095 -81.48410 3315 ft 108 kts
2026-05-01 14:36 28.38843 -81.48316 3410 ft 108 kts
2026-05-01 14:36 28.39596 -81.48225 3499 ft 109 kts
2026-05-01 14:37 28.40354 -81.48130 3578 ft 111 kts
2026-05-01 14:37 28.41123 -81.48021 3663 ft 111 kts
2026-05-01 14:37 28.41893 -81.47923 3742 ft 111 kts
2026-05-01 14:37 28.42662 -81.47827 3826 ft 111 kts
2026-05-01 14:38 28.43424 -81.47709 3920 ft 112 kts 10°
2026-05-01 14:38 28.44182 -81.47470 4020 ft 113 kts 13°
2026-05-01 14:38 28.44943 -81.47232 4131 ft 114 kts 13°
2026-05-01 14:38 28.45703 -81.46999 4240 ft 113 kts 13°
2026-05-01 14:39 28.46464 -81.46770 4325 ft 113 kts 13°
2026-05-01 14:39 28.47231 -81.46537 4410 ft 114 kts 13°
2026-05-01 14:39 28.47999 -81.46299 4483 ft 116 kts 13°
2026-05-01 14:39 28.48799 -81.46056 4495 ft 122 kts 13°
2026-05-01 14:40 28.49647 -81.45798 4501 ft 129 kts 13°
2026-05-01 14:40 28.50530 -81.45535 4502 ft 133 kts 13°
2026-05-01 14:40 28.51349 -81.45058 4500 ft 135 kts 31°
2026-05-01 14:40 28.52172 -81.44532 4501 ft 136 kts 28°
2026-05-01 14:41 28.53006 -81.44007 4500 ft 138 kts 28°
2026-05-01 14:41 28.53846 -81.43475 4498 ft 139 kts 28°
2026-05-01 14:41 28.54692 -81.42938 4501 ft 139 kts 28°
2026-05-01 14:41 28.55544 -81.42401 4498 ft 140 kts 28°
2026-05-01 14:42 28.56397 -81.41863 4498 ft 140 kts 28°
2026-05-01 14:42 28.57248 -81.41329 4499 ft 139 kts 28°
2026-05-01 14:42 28.58097 -81.40790 4499 ft 140 kts 31°
2026-05-01 14:42 28.58675 -81.39916 4492 ft 140 kts 67°
2026-05-01 14:43 28.59077 -81.38902 4495 ft 141 kts 69°
2026-05-01 14:43 28.59396 -81.37850 4497 ft 140 kts 73°
2026-05-01 14:43 28.59699 -81.36810 4498 ft 140 kts 72°
2026-05-01 14:43 28.59978 -81.35751 4494 ft 139 kts 85°
2026-05-01 14:44 28.59965 -81.34653 4494 ft 138 kts 94°
2026-05-01 14:44 28.59923 -81.32454 4496 ft 139 kts 92°
2026-05-01 14:44 28.59932 -81.31351 4496 ft 139 kts 88°
2026-05-01 14:45 28.59983 -81.30254 4495 ft 138 kts 89°
2026-05-01 14:45 28.61046 -81.28554 4482 ft 139 kts 22°
2026-05-01 14:45 28.61956 -81.28631 4480 ft 134 kts 323°
2026-05-01 14:46 28.62496 -81.29452 4492 ft 129 kts 289°
2026-05-01 14:46 28.61656 -81.30786 4498 ft 127 kts 175°
2026-05-01 14:46 28.61095 -81.30592 4496 ft 129 kts 155°
2026-05-01 14:47 28.60485 -81.29837 4499 ft 132 kts 128°
2026-05-01 14:47 28.59919 -81.29007 4501 ft 133 kts 131°
2026-05-01 14:47 28.59353 -81.28166 4496 ft 134 kts 128°
2026-05-01 14:48 28.59086 -81.25688 4497 ft 138 kts 93°
2026-05-01 14:48 28.59076 -81.24953 4498 ft 138 kts 93°
2026-05-01 14:48 28.59041 -81.22748 4498 ft 140 kts 93°
2026-05-01 14:49 28.59001 -81.20539 4494 ft 138 kts 94°
2026-05-01 14:49 28.59036 -81.18354 4484 ft 141 kts 72°
2026-05-01 14:50 28.60376 -81.17495 4484 ft 140 kts
2026-05-01 14:50 28.62705 -81.17079 4486 ft 149 kts
2026-05-01 14:51 28.63736 -81.16892 4487 ft 150 kts
2026-05-01 14:51 28.65812 -81.16516 4486 ft 151 kts
2026-05-01 14:52 28.67875 -81.16131 4488 ft 149 kts
2026-05-01 14:52 28.68893 -81.15940 4489 ft 148 kts
2026-05-01 14:52 28.70902 -81.15560 4481 ft 146 kts
2026-05-01 14:53 28.71906 -81.15377 4481 ft 146 kts
2026-05-01 14:53 28.72914 -81.15192 4481 ft 148 kts
2026-05-01 14:53 28.73929 -81.15003 4487 ft 148 kts
2026-05-01 14:53 28.74951 -81.14821 4491 ft 150 kts
2026-05-01 14:54 28.76002 -81.14685 4487 ft 153 kts
2026-05-01 14:54 28.77048 -81.14536 4481 ft 151 kts 11°
2026-05-01 14:54 28.77911 -81.13877 4471 ft 151 kts 43°
2026-05-01 14:54 28.78667 -81.13059 4470 ft 149 kts 41°
2026-05-01 14:55 28.79426 -81.12254 4475 ft 148 kts 42°
2026-05-01 14:55 28.80180 -81.11456 4475 ft 148 kts 42°
2026-05-01 14:55 28.80938 -81.10658 4472 ft 148 kts 40°
2026-05-01 14:55 28.81746 -81.09956 4470 ft 148 kts 34°
2026-05-01 14:56 28.82652 -81.09417 4467 ft 147 kts 17°
2026-05-01 14:56 28.83615 -81.09029 4448 ft 147 kts 15°
2026-05-01 14:56 28.84604 -81.08749 4449 ft 146 kts
2026-05-01 14:56 28.85604 -81.08538 4451 ft 146 kts
2026-05-01 14:57 28.86602 -81.08345 4451 ft 145 kts
2026-05-01 14:57 28.88595 -81.08044 4451 ft 144 kts
2026-05-01 14:57 28.89591 -81.07958 4461 ft 145 kts
2026-05-01 14:58 28.90605 -81.07870 4466 ft 147 kts
2026-05-01 14:58 28.91639 -81.07784 4472 ft 150 kts
2026-05-01 14:58 28.92680 -81.07701 4472 ft 149 kts
2026-05-01 14:58 28.93706 -81.07618 4473 ft 148 kts
2026-05-01 14:59 28.94682 -81.07815 4462 ft 142 kts 322°
2026-05-01 14:59 28.95110 -81.08743 4458 ft 133 kts 266°
2026-05-01 14:59 28.94660 -81.09615 4461 ft 135 kts 212°
2026-05-01 14:59 28.93741 -81.09664 4462 ft 140 kts 157°